Content
SEND FEEDBACK

Daily
Averages
Monthly
Summary
United States of America

BONANZA, OREGON


Home > North America > United States > Oregon
Elevation: 1478 meters     Latitude: 42 12N     Longitude: 121 08W

WEATHER
 
SELECT A DAY
Number of Records: 204,199;   Date Range: 1/1/95 - 10/19/14
 
SHARE

PRINT THIS DATA

[ ← Previous Day ]
WEATHER ALMANAC - 31 JANUARY, 2013
[ Next Day → ]
[ °F ]   °C
Weather ElementAverageHighLow
Temperature-1.9 °C6.7 °C (2:53 pm)-5 °C (6:31 am)
Dewpoint-3.1 °C1.1 °C (12:53 pm)-6 °C (6:31 am)
Humidity92 %100 % (9:53 am)68 % (2:53 pm)
Barometer1028.1 hPa1030.5 hPa (8:53 am)1026.1 hPa (2:53 pm)
Wind Speed1.6 km/h11.1 km/h (4:53 pm)
Weather ElementAverage
Visibility8 km
Wind DirectionENE (71.3 °)

Weather ElementTotal
Precipitation---
Heating Degree Days17.5 (Base 18.3)
Averaged from 30 records on 31 January, 2013
WEATHER CONDITIONS BREAKOUT
WIND DIRECTION BREAKOUT
WEATHER BY HOUR - 31 JANUARY, 2013
[ °F ]   °C
Local TimeTemperatureDewpointHumidityBarometerVisibilityWind DirectionWind SpeedGust SpeedPrecipitationEventsConditions
1:53 AM-2.8 °C-3.9 °C92 %1029.5 hPa16.1 kmCalmClear
2:53 AM-3.9 °C-4.4 °C96 %1029.5 hPa16.1 kmCalmClear
3:53 AM-3.3 °C-4.4 °C92 %1029.1 hPa11.3 kmCalmClear
4:53 AM-3.3 °C-4.4 °C92 %1028.8 hPa16.1 kmEast (100°)5.6 km/hClear
5:53 AM-3.9 °C-5 °C92 %1029.1 hPa12.9 kmCalmClear
6:00 AM-4 °C-5 °C93 %1027.1 hPa11.3 kmCalmFogPatches of Fog
6:31 AM-5 °C-6 °C93 %1027.1 hPa1.6 kmCalmMostly Cloudy
6:34 AM-5 °C-6 °C93 %1027.4 hPa0.8 kmNorth (350°)5.6 km/hFogLight Freezing Fog
6:53 AM-5 °C-5.6 °C96 %1029.8 hPa0.3 kmNNW (340°)7.4 km/hFogLight Freezing Fog
7:24 AM-5 °C-6 °C93 %1027.1 hPa0.3 kmCalmFogLight Freezing Fog
7:34 AM-5 °C-6 °C93 %1027.1 hPa0.3 kmCalmFogLight Freezing Fog
7:53 AM-4.4 °C-5 °C96 %1030.1 hPa0.3 kmNorth (360°)5.6 km/hFogLight Freezing Fog
8:53 AM-4.4 °C-5 °C96 %1030.5 hPa0.3 kmCalmFogLight Freezing Fog
9:30 AM-3 °C-4 °C93 %1027.8 hPa0.3 kmNW (320°)7.4 km/hFogLight Freezing Fog
9:53 AM-3.3 °C-3.3 °C100 %1030.5 hPa0.3 kmCalmFogLight Freezing Fog
10:15 AM-3 °C-3 °C100 %1028.1 hPa0.3 kmCalmFogLight Freezing Fog
10:53 AM-2.2 °C-2.2 °C100 %1030.5 hPa0.3 kmCalmFogLight Freezing Fog
11:36 AM-1 °C-1 °C100 %1027.1 hPa0.3 kmCalmFogLight Freezing Fog
11:53 AM0 °C-0.6 °C96 %1028.8 hPa1.9 kmCalmMostly Cloudy
12:01 PM0 °C-1 °C93 %1026.8 hPa4.8 kmCalmMostly Cloudy
12:53 PM2.2 °C1.1 °C93 %1027.8 hPa16.1 kmCalmScattered Clouds
1:53 PM4.4 °C0.6 °C77 %1026.8 hPa16.1 kmCalmPartly Cloudy
2:53 PM6.7 °C1.1 °C68 %1026.1 hPa16.1 kmCalmPartly Cloudy
4:53 PM3.3 °C0 °C79 %1026.8 hPa16.1 kmNNW (340°)11.1 km/hPartly Cloudy
5:53 PM1.1 °C-1.1 °C85 %1027.1 hPa16.1 kmNNW (330°)7.4 km/hPartly Cloudy
6:53 PM0 °C-1.7 °C88 %1027.8 hPa11.3 kmCalmPartly Cloudy
7:53 PM-1.1 °C-2.2 °C92 %1027.4 hPa11.3 kmCalmClear
8:53 PM-2.2 °C-2.8 °C96 %1028.1 hPa11.3 kmCalmClear
10:53 PM-2.2 °C-3.3 °C92 %1027.8 hPa16.1 kmCalmClear
11:53 PM-1.7 °C-2.8 °C92 %1027.8 hPa16.1 kmCalmClear
Hourly data recorded from KLMT, located 0 kilometers away from Bonanza, Oregon







STORIES FROM OUR PARTNERS